Regional Weather Roundup
Issued by NWS

Home | Current Version | Previous Version | Graphics & Text | Print | Product List | Glossary On
Versions: 1 2 3 4 5 6 7 8 9 10 11 12 13 14 15 16 17 18 19 20 21 22 23 24 25 26 27 28 29 30 31 32 33 34 35 36 37 38 39 40 41 42 43 44 45 46 47 48 49 50
000
ASUS43 KLMK 220502
RWRKY
KENTUCKY REGIONAL WEATHER ROUNDUP
NATIONAL WEATHER SERVICE LOUISVILLE KY
100 AM EDT WED OCT 22 2014

NOTE "FAIR" INDICATES FEW OR NO CLOUDS BELOW 12,000 FEET
WITH NO SIGNIFICANT WEATHER AND/OR OBSTRUCTIONS TO VISIBILITY.

KYZ001>023-026-027-061>063-070>075-220600-
WESTERN AND SOUTH CENTRAL KENTUCKY

CITY           SKY/WX    TMP DP  RH WIND       PRES   REMARKS
PADUCAH        CLEAR     49  43  80 CALM      30.16S
HENDERSON      CLEAR    N/A N/A N/A N3        30.19S
OWENSBORO      LGT RAIN  50  42  73 NE7       30.19R
HOPKINSVILLE   CLEAR     47  43  87 N6        30.16R
BOWLING GREEN  CLEAR     45  41  86 CALM      30.16S
GLASGOW        NOT AVBL
$$

KYZ024-025-028>034-038-045-046-053-220600-
NORTH CENTRAL KENTUCKY

CITY           SKY/WX    TMP DP  RH WIND       PRES   REMARKS
LOUISVILLE/SDF PTCLDY    51  42  71 VRB6      30.17S
LOUISVILLE/LOU CLEAR     50  42  74 NE3       30.18S
FORT KNOX      CLOUDY    50  42  74 N5        30.15S
$$

KYZ035>037-039>044-047>052-055>060-089>105-220600-
NORTHEAST KENTUCKY

CITY           SKY/WX    TMP DP  RH WIND       PRES   REMARKS
LEXINGTON      CLEAR     48  41  76 N7        30.16S
COVINGTON      CLOUDY    48  37  65 NE9       30.17S
FRANKFORT      CLEAR     47  40  76 N6        30.16S
$$

KYZ054-064>069-076>088-106>120-220600-
SOUTHEAST KENTUCKY

CITY           SKY/WX    TMP DP  RH WIND       PRES   REMARKS
JACKSON        CLOUDY    44  41  89 CALM      30.13S
LONDON         CLOUDY    50  41  71 N5        30.13S
SOMERSET       CLOUDY    50  41  71 CALM      30.15S
MIDDLESBORO    NOT AVBL
MONTICELLO     CLOUDY    49  44  83 CALM      30.15F
$$




USA.gov is the U.S. government's official web portal to all federal, state and local government web resources and services.